PDT,Max TemperatureF,Mean TemperatureF,Min TemperatureF,Max Dew PointF,MeanDew PointF,Min DewpointF,Max Humidity, Mean Humidity, Min Humidity, Max Sea Level PressureIn, Mean Sea Level PressureIn, Min Sea Level PressureIn, Max VisibilityMiles, Mean VisibilityMiles, Min VisibilityMiles, Max Wind SpeedMPH, Mean Wind SpeedMPH, Max Gust SpeedMPH,PrecipitationIn, CloudCover, Events, WindDirDegrees
2011-10-1,89,82,75,55,51,45,50,35,25,29.97,29.92,29.90,20,20,20,12,5,,0.00,1,,265
2011-10-2,91,75,59,52,50,48,72,39,23,30.01,29.97,29.94,20,20,20,12,4,18,0.00,2,,266
2011-10-3,80,66,62,55,54,54,72,57,39,29.99,29.97,29.94,,,,8,2,,0.00,4,,260
2011-10-4,71,66,60,55,54,52,82,68,50,30.00,29.98,29.96,10,9,7,12,5,17,0.00,7,Rain,217
2011-10-5,66,62,55,57,54,48,100,76,56,30.00,29.92,29.86,10,7,1,17,8,23,0.00,8,Rain,188
2011-10-6,66,60,60,48,46,45,63,54,46,29.98,29.96,29.94,15,12,10,12,4,17,0.00,6,,230
2011-10-7,75,60,46,50,46,45,100,58,34,30.09,30.06,30.02,20,14,10,12,4,,0.00,0,,260
2011-10-8,82,64,46,45,42,39,93,44,21,30.06,30.00,29.96,20,15,12,12,4,17,0.00,0,,270
2011-10-9,86,68,51,43,40,34,71,33,15,30.00,29.93,29.88,,,,10,3,,0.00,1,,267
2011-10-10,84,68,53,48,43,39,72,39,20,29.96,29.93,29.89,,,,12,2,,0.00,0,,270
2011-10-11,84,53,53,46,45,43,77,50,23,29.93,29.91,29.89,,,,0,0,,0.00,0,,-1
2011-10-12,102,83,64,50,48,46,59,30,15,29.88,29.83,29.77,12,12,12,14,4,,0.00,0,,270
2011-10-13,100,78,57,48,44,39,63,29,12,29.86,29.82,29.80,,,,8,2,,0.00,0,,240
2011-10-14,87,71,55,59,52,46,82,52,24,29.91,29.88,29.85,20,12,10,12,2,,0.00,4,,200
2011-10-15,77,70,60,57,55,54,88,62,47,29.98,29.94,29.91,20,14,10,10,5,,0.00,0,,274
2011-10-16,82,70,57,57,56,55,100,58,39,30.05,30.01,29.97,20,8,2,9,3,,0.00,2,,265
2011-10-17,87,71,55,54,50,43,94,48,26,30.07,30.04,30.00,,,,9,2,,0.00,0,,267
2011-10-18,84,70,55,57,56,55,100,63,40,30.08,30.00,29.95,20,12,0,12,2,,0.00,2,Fog,260
2011-10-19,71,65,59,59,56,54,100,71,57,29.96,29.94,29.91,10,7,2,12,3,,0.00,3,,290
2011-10-20,73,66,59,55,53,52,82,67,50,30.02,29.99,29.97,10,7,5,9,3,,0.00,4,,230
2011-10-21,71,66,60,54,54,54,77,65,53,30.09,30.07,30.06,10,8,4,0,0,,0.00,2,,-1
2011-10-22,87,69,51,57,54,52,100,56,31,30.06,29.99,29.93,15,10,3,12,3,,0.00,0,,250
2011-10-23,78,66,55,57,56,55,100,68,44,29.98,29.96,29.94,20,11,0,12,4,17,0.00,2,Fog,220
2011-10-24,73,66,60,55,55,55,82,70,53,30.07,30.05,30.02,10,5,2,9,1,,0.00,6,,255
2011-10-25,71,64,60,54,50,48,77,57,43,30.11,30.09,30.05,10,10,10,12,3,,0.00,6,,240
2011-10-26,68,62,57,54,51,48,88,69,49,30.07,30.05,30.03,15,12,8,7,2,,0.00,6,,270
2011-10-27,51,,51,43,43,43,71,71,71,30.04,30.04,30.04,,,,0,0,,0.00,0,,-1
2011-10-28,84,63,42,45,34,21,66,36,10,30.07,30.03,29.99,20,15,12,9,3,,0.00,2,,280
2011-10-29,84,65,46,39,35,30,71,33,15,30.08,30.02,29.97,12,12,12,12,3,,0.00,2,,275
2011-10-30,89,66,42,39,34,32,70,33,13,30.06,30.02,29.99,,,,8,2,,0.00,1,,270
2011-10-31,84,70,55,37,36,32,51,28,15,30.03,29.98,29.92,,,,9,2,,0.00,0,,280